Vorticity
1 5 1 4 11 11 7 6 8 5 10 0 7 7 14 19 34 11 11 8 4 5 12 4 5 10 30 -2 1 -7 1 2 7 1 2 5 5 -6 3 2 -1 20 4 7
7 1 9 8 5 3 7 8 6 2 6 7 19 7 15 7 40 23 9 6 5 2 5 10 -11 8 -19 5 1 17 -0 -2 6 2 1 6 -3 -0 4 11 -1 24 4 6
6 9 12 11 9 8 8 3 8 12 15 14 9 2 14 18 26 28 7 6 4 7 7 2 4 36 -0 2 3 7 7 2 -0 5 -0 1 3 1 2 2 -1 26 4 6
4 10 10 11 10 18 11 21 21 15 14 5 18 6 13 25 15 38 9 5 3 7 8 11 2 7 54 53 -13 -14 -2 1 1 -4 12 -1 1 -6 5 0 11 28 4 5
6 16 20 17 16 25 8 17 5 10 9 17 6 11 19 15 18 39 13 2 3 4 9 7 3 35 11 17 -3 -20 17 -1 -1 3 -3 3 -3 -5 3 5 23 13 7 6
14 5 7 11 16 19 28 39 28 21 23 16 8 17 8 15 12 29 21 10 8 4 8 -0 13 7 5 41 24 -20 -8 7 -6 3 16 2 -7 -5 14 8 21 6 6 5
69 95 29 5 14 33 -5 13 9 19 18 15 11 18 7 19 9 18 30 9 12 10 8 4 10 -4 14 5 7 5 1 11 8 16 3 1 1 0 17 20 12 9 6 1
28 26 55 85 5 13 4 2 -5 34 4 24 6 18 20 16 28 25 25 25 7 17 10 7 8 -1 31 -6 15 9 17 8 10 -3 0 3 -5 16 12 22 8 4 4 3
33 3 18 47 -8 4 17 39 10 -2 -4 16 -4 26 31 12 5 8 29 43 -5 30 8 11 11 4 36 19 75 -5 -2 4 -2 2 8 -1 3 14 16 13 5 4 2 10
4 16 36 46 13 26 13 37 9 0 18 1 12 26 20 5 4 1 21 6 10 43 9 2 19 2 3 43 10 -2 28 16 6 5 5 6 4 5 15 13 4 4 7 8
9 11 21 0 35 5 11 20 2 5 5 14 11 34 30 8 24 3 3 9 14 30 19 6 13 8 6 13 14 -25 29 -15 2 -2 -0 11 3 20 20 4 4 5 11 8
16 -5 25 30 30 13 13 32 24 2 3 9 29 35 17 2 7 -9 23 12 9 7 23 21 9 11 9 28 9 40 44 10 -1 13 13 1 13 23 19 2 2 8 7 8
15 31 26 2 10 13 10 21 8 1 9 36 21 28 14 -2 15 26 34 5 -2 0 12 11 18 -2 8 3 29 10 45 15 19 -0 11 17 27 9 9 -2 2 5 6 8
22 21 38 46 34 27 17 17 2 11 36 4 -6 17 11 6 2 21 24 -1 6 13 11 30 13 12 12 9 35 23 -20 7 6 2 -2 7 22 24 14 2 7 5 6 6
-0 11 12 -1 -2 27 3 19 37 24 5 3 42 17 4 0 10 11 15 11 5 9 5 6 3 6 13 14 30 28 46 -0 7 2 -3 19 23 5 10 13 4 6 6 5
1 39 -4 5 -4 11 -34 36 12 14 -2 -11 12 27 27 -28 6 8 12 15 12 -2 -13 -1 8 7 5 16 23 -1 22 5 -3 10 -7 14 18 7 8 8 7 4 4 3
9 -3 22 12 18 26 18 13 12 -4 11 -1 14 31 34 13 57 22 5 23 -0 -1 -0 3 -3 12 33 18 19 25 12 -2 19 -1 14 -6 -8 5 3 8 5 7 4 6
54 21 -18 -6 11 16 12 9 6 6 9 -11 14 11 21 -4 16 18 -5 14 4 6 9 13 17 21 33 10 20 18 34 -8 32 15 -3 -9 12 5 6 6 9 1 7 5
2 15 30 16 14 10 3 25 11 20 11 -12 2 44 56 64 15 23 -13 11 5 0 15 8 1 7 -21 33 16 10 16 4 0 4 15 8 26 21 0 3 14 4 7 3
5 5 21 6 34 -2 28 -38 -8 -7 -34 19 -24 43 30 15 6 3 1 2 4 1 -2 44 -7 11 31 26 2 14 3 5 0 11 17 5 31 52 -3 14 8 -4 -1 4
17 7 23 20 13 8 22 29 9 -17 10 13 -26 13 71 2 9 31 10 12 4 -47 80 9 0 -6 48 22 14 12 9 5 13 21 4 7 7 22 28 5 6 -2 11 4
1 15 26 18 10 2 4 -8 20 42 25 19 12 3 18 78 22 -10 2 -0 6 -1 10 59 6 21 35 31 26 11 12 11 16 4 1 -3 11 -22 17 15 10 -7 21 7
-2 18 3 21 18 -4 1 6 12 -3 7 12 11 -0 29 -8 -7 83 40 35 23 32 7 17 5 42 3 51 44 8 13 16 3 6 27 1 -1 -13 1 3 0 13 18 14
6 7 14 1 13 15 8 3 6 8 3 0 5 19 4 1 25 5 20 9 21 8 7 4 6 1 30 -11 41 22 1 -22 -43 -2 6 0 28 29 16 14 1 -6 5 20
13 9 8 11 10 6 9 11 11 11 14 5 3 6 10 5 5 8 -7 34 9 21 24 7 21 21 28 25 -9 42 -10 16 10 17 7 26 0 11 15 9 -1 11 31 8
4 7 8 12 14 14 8 9 11 12 12 17 8 12 1 7 7 6 4 -2 -3 33 10 5 18 8 8 -16 -4 27 23 19 1 -31 68 -16 5 -4 17 10 12 3 1 19
Height
5663 5662 5663 5665 5667 5669 5667 5668 5675 5682 5682 5678 5684 5686 5697 5702 5705 5711 5721 5725 5731 5739 5749 5759 5761 5762 5772 5781 5789 5798 5808 5816 5821 5825 5833 5837 5841 5841 5842 5842 5842 5841 5843 5843
5639 5644 5644 5644 5646 5649 5648 5651 5659 5664 5666 5662 5669 5672 5679 5685 5693 5698 5704 5713 5718 5729 5736 5744 5753 5755 5767 5774 5781 5791 5800 5808 5816 5819 5827 5830 5835 5835 5835 5836 5837 5838 5839 5839
5613 5629 5621 5621 5622 5625 5632 5635 5644 5645 5649 5645 5652 5655 5664 5669 5675 5684 5688 5699 5707 5717 5725 5734 5743 5744 5757 5763 5773 5782 5791 5801 5808 5813 5817 5824 5829 5830 5829 5831 5829 5833 5835 5835
5586 5600 5594 5595 5600 5606 5611 5621 5623 5626 5630 5632 5639 5637 5648 5655 5661 5672 5675 5683 5693 5705 5720 5727 5731 5739 5739 5730 5766 5774 5783 5791 5799 5804 5810 5817 5823 5824 5824 5825 5824 5827 5831 5832
5564 5565 5570 5569 5579 5591 5592 5602 5603 5608 5614 5619 5626 5624 5636 5642 5646 5659 5668 5673 5681 5695 5709 5717 5725 5729 5740 5742 5744 5761 5771 5782 5789 5797 5803 5810 5814 5817 5819 5819 5820 5822 5826 5828
5527 5539 5545 5552 5565 5575 5580 5588 5592 5597 5601 5596 5614 5615 5615 5631 5639 5649 5659 5662 5673 5683 5698 5707 5712 5721 5730 5736 5746 5746 5760 5774 5781 5790 5796 5803 5806 5811 5814 5814 5815 5816 5820 5824
5508 5516 5525 5533 5550 5560 5565 5575 5583 5588 5586 5587 5605 5604 5604 5627 5634 5643 5650 5656 5663 5674 5688 5699 5706 5715 5723 5726 5740 5745 5757 5766 5774 5781 5788 5794 5801 5804 5805 5807 5809 5812 5815 5818
5500 5503 5502 5512 5530 5550 5557 5566 5574 5579 5583 5591 5600 5593 5602 5626 5633 5639 5645 5651 5655 5666 5678 5690 5698 5710 5713 5716 5727 5740 5746 5757 5767 5773 5781 5788 5794 5796 5798 5802 5805 5808 5811 5814
5499 5500 5500 5508 5525 5539 5546 5553 5572 5577 5582 5586 5590 5594 5610 5617 5623 5627 5636 5643 5648 5661 5670 5681 5692 5702 5705 5709 5714 5732 5741 5751 5757 5767 5774 5780 5786 5788 5792 5796 5800 5804 5806 5808
5501 5502 5506 5513 5525 5534 5543 5553 5563 5571 5577 5582 5584 5595 5597 5609 5619 5626 5632 5635 5643 5656 5668 5674 5685 5693 5696 5703 5714 5717 5731 5743 5750 5760 5766 5774 5778 5780 5785 5790 5795 5798 5801 5803
5504 5507 5510 5513 5522 5530 5541 5551 5560 5569 5574 5578 5584 5590 5596 5604 5614 5621 5626 5630 5637 5650 5661 5671 5678 5686 5692 5697 5708 5716 5722 5733 5741 5750 5759 5766 5770 5773 5778 5783 5789 5792 5795 5798
5507 5511 5513 5519 5527 5534 5543 5553 5559 5565 5573 5576 5581 5588 5595 5602 5609 5617 5623 5628 5638 5647 5657 5666 5673 5680 5687 5696 5702 5704 5704 5721 5732 5743 5752 5758 5762 5766 5771 5777 5783 5786 5788 5792
5512 5515 5518 5525 5533 5540 5547 5553 5560 5567 5573 5577 5579 5587 5592 5598 5602 5610 5619 5628 5638 5646 5651 5660 5669 5675 5681 5687 5694 5704 5711 5718 5726 5734 5745 5751 5755 5760 5765 5771 5777 5781 5784 5787
5516 5521 5528 5532 5533 5541 5548 5555 5560 5565 5571 5576 5582 5586 5591 5596 5601 5605 5614 5623 5632 5637 5646 5655 5663 5670 5676 5683 5689 5695 5706 5714 5720 5729 5737 5744 5749 5754 5760 5765 5770 5776 5779 5782
5523 5525 5531 5536 5539 5546 5550 5555 5559 5564 5569 5578 5582 5589 5593 5597 5602 5606 5613 5621 5627 5634 5639 5647 5655 5663 5669 5675 5682 5694 5700 5707 5716 5725 5732 5738 5743 5747 5753 5758 5764 5770 5774 5777
5532 5535 5539 5543 5546 5552 5555 5559 5564 5572 5576 5582 5587 5592 5592 5597 5602 5607 5611 5619 5628 5633 5638 5645 5652 5658 5664 5671 5680 5690 5688 5704 5712 5720 5727 5732 5739 5743 5748 5753 5758 5764 5768 5771
5542 5544 5546 5549 5551 5556 5561 5565 5570 5577 5580 5584 5588 5591 5595 5597 5602 5606 5612 5618 5627 5632 5638 5645 5652 5657 5663 5667 5676 5685 5692 5700 5706 5713 5719 5726 5733 5738 5743 5747 5752 5759 5763 5765
5550 5552 5553 5555 5558 5560 5564 5571 5577 5580 5584 5585 5588 5590 5590 5594 5599 5605 5612 5619 5625 5626 5636 5640 5644 5651 5658 5663 5668 5675 5683 5691 5698 5706 5713 5721 5726 5730 5736 5740 5746 5752 5756 5760
5557 5558 5560 5562 5563 5567 5572 5576 5579 5584 5588 5589 5589 5586 5588 5591 5598 5606 5614 5617 5625 5630 5632 5638 5644 5646 5651 5657 5663 5670 5677 5685 5691 5698 5707 5712 5717 5724 5729 5734 5740 5745 5749 5753
5565 5563 5567 5567 5570 5575 5578 5579 5581 5583 5587 5587 5589 5589 5586 5593 5599 5607 5613 5617 5623 5626 5628 5628 5637 5642 5647 5652 5657 5665 5673 5681 5687 5694 5701 5706 5710 5714 5720 5726 5731 5736 5741 5744
5572 5572 5574 5576 5575 5578 5581 5583 5585 5589 5592 5591 5591 5592 5591 5598 5603 5608 5612 5615 5618 5621 5624 5629 5633 5638 5643 5648 5655 5662 5668 5675 5681 5687 5692 5697 5703 5709 5714 5719 5723 5729 5733 5736
5579 5578 5579 5580 5581 5583 5585 5588 5590 5591 5593 5595 5595 5596 5599 5602 5607 5608 5612 5615 5616 5621 5623 5624 5632 5636 5639 5645 5651 5656 5662 5668 5674 5679 5685 5690 5695 5701 5707 5712 5716 5721 5724 5727
5584 5582 5581 5584 5584 5585 5586 5589 5590 5592 5595 5597 5596 5598 5599 5604 5607 5611 5613 5616 5620 5622 5625 5625 5629 5632 5638 5639 5644 5651 5656 5663 5669 5674 5679 5684 5689 5694 5699 5703 5708 5712 5715 5718
5587 5587 5587 5587 5586 5587 5589 5591 5593 5596 5597 5598 5599 5601 5604 5606 5608 5609 5609 5615 5617 5620 5623 5625 5626 5628 5631 5635 5638 5644 5646 5657 5647 5665 5673 5673 5678 5686 5690 5695 5700 5704 5705 5709
5590 5591 5591 5590 5590 5590 5590 5593 5595 5596 5597 5599 5601 5602 5604 5608 5610 5611 5609 5609 5615 5618 5621 5624 5623 5625 5628 5632 5636 5640 5646 5651 5652 5659 5665 5673 5677 5676 5678 5687 5692 5696 5697 5698
5595 5595 5595 5595 5594 5594 5594 5594 5594 5596 5597 5598 5600 5602 5604 5606 5609 5612 5613 5611 5612 5616 5618 5619 5618 5619 5621 5625 5630 5635 5637 5645 5649 5653 5653 5662 5667 5670 5674 5680 5684 5686 5687 5688